sat.trackr.live / text

‹ back to catalog

STARLINK-36413

NORAD 67338 · 2026-003E

PAYLOAD ACTIVE UNKNOWN

§ Identity

Operator
Country
US
Launch date
2026-01-09
Launch site
AFETR
Launch vehicle
Mass (kg)
RCS (m²)

Purposes: comms

External: N2YO · Heavens-Above · Gunter

§ Orbital elements

Epoch: 2026-05-25T00:22:21.587232Z

Period
94.27 min
Inclination
43.0021°
Eccentricity
0.0001475
Mean motion
15.27580853 rev/d
Perigee alt
482.0 km
Apogee alt
484.1 km
Semi-major
6,861.2 km
B*
4.8660e-4
RAAN
156.3143°
Arg perigee
280.7694°
Mean anomaly
79.2992°
Rev number
2,049

§ Raw data

STARLINK-364131 67338U 26003E   26145.01552763  .00013152  00000+0  48660-3 0  99932 67338  43.0021 156.3143 0001475 280.7694  79.2992 15.27580853 20492

JSON: /api/v1/satellites/67338 · /tle

For live sub-satellite position, see the globe view (requires WebGL).

§ Visibility from observer

Set your observer location to see the next 7 days of passes ≥ 10°. The values pass through the URL so the page stays shareable.

No JS? Fill the form by hand. The geolocation button needs JavaScript.